Navigation: Drive List Submit Your Drive Statistics Feedback Help Privacy About
 
This list is created by those who submitted their information to this page. You cannot expect 100% accuracy, but if there's many entries of the same drive chances are the majority is correct. If the drive you want to submit is already in the list, don't hasitate to submit since you are only confirming that the particular drive work/doesn't work. Recommended screen resolution: 1024x768 or higher.

In the beginning I only included the entries from the xbox-scene forum thread that had a valid model number, or where the model number could be guessed. I have skipped a lot of WD 120GB and Maxtor drives because they didn't provide the model number.

2005-11-18: If you accidentally locked a drive with a wrong password or lost the matching Xbox eeprom to unlock the drive, there's now a new service online that will allow you (for a small fee) to force unlock the hard drive and return it back to normal state. Most of the hard drives from Maxtor, Western Digital, Seagate and Samsung is supported. If you you're serious about getting your data back or the drive working again, you should take a look AFF Repair Station.

2006-05-28: It's been a while since the last news update. Whenever I see a bug or error I update the codebase, and in the last month I've fixed some submission errors, edit auth faults and recently made the sorting and filtering system the way it should be. There is still a problem with invalid submissions in the database and I encourage you to report them so I can remove the entries. Thanks to those who've submitted to the database.

-

Total entries: 3230 Locking: 2500 (77%)
Not locking: 730 (22%)
Most lockable brand: Western Digital
Most lockable drive serie: hynix
Most lockable drive: Seagate ST3200822A
Most popular lockable drive size: 120 GB
Most popular lockable drive speed: 7200 RPM
Most popular locking program: ConfigMagic
Search bar Show all
Added Brand Model no. Size RPM Buffer Locking Program XBOX Posted by Comment #
101. 2006-12-07 Seagate ST3320620A 320 GB 7200 16 MB Yes xbox Unk. rhaltech None 0
102. 2006-12-11 Seagate ST3320620A 320 GB 7200 16 MB Yes Slayers... v1.4 jhobson Avalaunc... 0
103. 2006-12-13 Seagate ST3400620A 400 GB 7200 16 MB Yes XboxHdm... v1.6 Chanser Works fi... 2
104. 2006-12-27 Seagate ST3250620A 250 GB 7200 16 MB Yes XboxHDM... v1.6 gta95 Worked g... 0
105. 2007-01-19 Seagate ST3320620A 320 GB 7200 16 MB Yes Xboxhdm... v1.6 Robbie boy... With in ... 0
106. 2007-01-21 Seagate ST3750640A 750 GB 7200 16 MB Yes Auto-In... v1.0 wildthing No probl... 1
107. 2007-01-27 Maxtor 6H500R0 500 GB 7200 16 MB Yes Unleash... v1.6 Xeron Little S... 0
108. 2007-04-04 MAXTOR DIAMOND MAX 21 320 GB N/A 16 MB Yes CHimp 2... v1.0 MysticModz... None 0
109. 2007-04-07 Seagate ST3500630A 500 GB 7200 16 MB Yes XBOXHDM... v1.6b Grote Smur... Took the... 1
110. 2007-04-09 MAXTOR GA250Y0 250 GB 7200 16 MB No XENIUM v1.4 ACTEC None 0
111. 2007-04-23 Maxtor L01Y300 300 GB 7200 16 MB Yes xboxhd v1.0 kadaj-127 works pe... 0
112. 2007-04-28 Seagate ST3750640AS 750 GB 7200 16 MB Yes ConfigM... v1.3 aboredprog... As someo... 2
113. 2007-05-02 Seagate ST32250624A 250 GB 7200 16 MB Yes XboxHDM... v1.1 ecko Works fi... 0
114. 2007-05-11 Seagate ST33206220A 320 GB 7200 16 MB Yes XBMC, &... v1.6 TheWickedC... (X-3 CE ... 0
115. 2007-05-17 Seagate ST3500630A 500 GB 7200 16 MB Yes x3 bios... v1.0 leeang16 None 1
116. 2007-05-22 Seagate ST3500630A 500 GB 7200 16 MB Yes xboxhdm... v1.1 awelch Locked p... 0
117. 2007-06-12 Seagate ST3500630A 500 GB 7200 16 MB Yes X3 Conf... v1.6b Digga Easy, st... 0
118. 2007-06-15 Seagate ST33206220A 320 GB 7200 16 MB Yes XboxHDM... v1.5 Corvillus None 0
119. 2007-06-25 Seagate ST3500630A 500 GB 7200 16 MB Yes XboxHDM... v1.0 Morbid After bu... 1
120. 2007-06-30 Seagate ST3320620A 320 GB 7200 16 MB Yes XboxHDM... v1.6 neutron mo... Would ha... 2
121. 2007-07-26 Samsung HD501LJ 500 GB 7200 16 MB Yes SmartXX... v1.4 Tubby Used thi... 0
122. 2007-08-13 MAXTOR DIAMOND MAX 10 300 GB 7200 16 MB Yes dont kn... v1.4 skip-raide... quiet, a... 0
123. 2007-08-22 Seagate ST3320620A 320 GB 7200 16 MB Yes Evoluti... v1.6b trxn BIOS is ... 0
124. 2007-08-25 Western Digital WD5000AAKB 500 GB 7200 16 MB Yes lockhd Unk. Webber Bought 2... 5
125. 2007-09-09 Western Digital WD50000JBRTL 500 GB 7200 16 MB Yes xboxhdm... Unk. CaptainPea... Running ... 1
126. 2007-09-10 Seagate ST3500630A 500 GB 7200 16 MB No Evox v1.0 Phrensouwa... works pe... 2
127. 2007-09-23 Seagate ST3250620A 250 GB 7200 16 MB Yes X3 Conf... v1.3 chargrill DVD2XBOX... 0
128. 2007-09-27 MAXTOR 6L250R0051MP6 250 GB 7200 16 MB No All Unk. SirMaveric... Tried al... 1
129. 2007-10-13 Western Digital WDC WD5000AAKB-22UKA0 500 GB 7200 16 MB Yes HDMTool... v1.6 balduin None 1
130. 2007-10-20 Western Digital WD5000AAKB 500 GB 7200 16 MB Yes xboxhdm... v1.0 Yaffle I had no... 0
131. 2007-10-23 Maxtor L01Y500 500 GB 7200 16 MB Yes xbhdm v... v1.3 crash04 Worked l... 0
132. 2007-10-30 Seagate ST3400632A-RK 400 GB 7200 16 MB Yes xboxhdm... v1.4 None None 0
133. 2007-10-30 Seagate ST3560630A 500 GB 7200 16 MB Yes Slayers... v1.0 Mosesmick had to f... 0
134. 2007-11-17 MAXTOR STM3500630A 500 GB 7200 16 MB Yes XboxHDM... v1.6 jVirus This Dri... 1
135. 2007-11-19 MAXTOR 7L250R0 250 GB 7200 16 MB Yes not tes... v1.6 belladona1... work fla... 0
136. 2007-12-09 Seagate ST3750640A 750 GB 7200 16 MB Yes XbHDM Unk. DisturbedZ... None 0
137. 2007-12-17 Western Digital WD3200AAKB 320 GB 7200 16 MB Yes xboxhdm... v1.6b .conne. None 4
138. 2008-03-03 Western Digital WD5000AAJB 500 GB 7200 16 MB Yes xboxhdm... Unk. jVirus Used Kra... 0
139. 2008-03-11 Seagate ST3750640A 750 GB 7200 16 MB Yes xboxhdm... v1.6 wildonrio No probl... 0
140. 2008-03-14 Seagate ST3250310AS 250 GB 7200 16 MB Yes XBOXHDM... v1.1 thrashnbas... Make no ... 0
141. 2008-03-14 Seagate ST3320620A 320 GB 7200 16 MB Yes XboxHDM... v1.0 Modder2k Fast dri... 1
142. 2008-03-14 Seagate ST303204N1A1A-RK 320 GB 7200 16 MB Yes XboxHDM... v1.0 Modder2k Fast dri... 0
143. 2008-03-21 Seagate ST3500630A 500 GB 7200 16 MB Yes xboxhdm... v1.1 coldfish cloned m... 0
144. 2008-04-20 Seagate ST3500630A 500 GB 7200 16 MB Yes xboxhdm... v1.0 Roger lock wit... 0
145. 2008-04-28 Samsung HD501LJ 500 GB 7200 16 MB Yes Xboxhdm... v1.6 relasa I used t... 0
146. 2008-06-13 Seagate ST3320620A 320 GB 7200 16 MB Yes XboxHDM... v1.0 Matthacker... When I f... 0
147. 2008-07-20 Maxtor STM3500630A 500 GB 7200 16 MB Yes xboxhdm... v1.6 NAMCO None 0
148. 2008-07-24 Western Digital WD5000AAKB 500 GB 7200 16 MB Yes xboxhdm... Unk. xbox After yo... 1
149. 2008-08-05 Seagate ST3320620A 320 GB 7200 16 MB Yes xboxhdm... v1.6 tyson Worked p... 0
150. 2008-08-09 Seagate ST3320620A 320 GB 7200 16 MB Yes XboxHDM... v1.6 evilboxxer... I'm a be... 0
 Page 3 of 5 Entries returned: 225   << First < Previous 1 2 3 4 5 Next > Last >> 
 
  • Click on the particular brand, model number, size or status to filter out all drives that has the same data.
  • Sort the columns by clicking on the labels on the top grey bar, a second click descends the list.
  • Use the search bar to make specific searches, i.e. show all Seagate disks that's 120 GB and has 8 MB cache.
 


Submit your hard drive

Read this before you post
 
Brand
Other brand:
Model number
Model name / serie
Drive size GB
RPM
Other RPM:
Buffersize (in MB) MB (0.1/0.2/0.5/1/2/8/16 MB)
Firmware version
Manufacture date YYYY-MM-DD
Lockable
Program(s)
XBOX version
Your name/nick
Your e-mail
Show e-mail publicly
Verification code Code:
Additional comments / Error messages / Problems
* BOLD = Required